timestamp,surface_pressure_avg,surface_temp_avg,battery_voltage,lat,long
2018-10-30 00:00:00+00:00,242.9264,9.6,12.81,47.84626,-54.09684
2018-10-30 00:10:00+00:00,253.5664,9.6,12.81,47.84626,-54.09684
2018-10-30 00:20:00+00:00,255.8348,9.6,12.81,47.84626,-54.09684
2018-10-30 00:30:00+00:00,255.5414,9.6,12.89,47.84626,-54.09684
2018-10-30 00:40:00+00:00,263.9864,9.6,12.89,47.84626,-54.09684
2018-10-30 00:50:00+00:00,278.8298,9.6,12.89,47.84626,-54.09684
2018-10-30 01:00:00+00:00,281.6581,9.6,12.81,47.84626,-54.09684
2018-10-30 01:10:00+00:00,286.383,9.6,12.73,47.84626,-54.09684
2018-10-30 01:20:00+00:00,304.2714,9.6,12.81,47.84626,-54.09684
2018-10-30 01:30:00+00:00,313.1014,9.6,12.81,47.84626,-54.09684
2018-10-30 01:40:00+00:00,306.7396,9.6,12.89,47.84626,-54.09684
2018-10-30 01:50:00+00:00,316.6813,9.6,12.89,47.84626,-54.09684
2018-10-30 02:00:00+00:00,331.3647,9.6,12.81,47.84626,-54.09684
2018-10-30 02:10:00+00:00,329.3246,9.6,12.73,47.84626,-54.09684
2018-10-30 02:20:00+00:00,321.1863,9.6,12.81,47.84626,-54.09684
2018-10-30 02:30:00+00:00,329.7846,9.6,12.81,47.84626,-54.09684
2018-10-30 02:40:00+00:00,334.3864,9.6,12.89,47.84626,-54.09684
2018-10-30 02:50:00+00:00,329.1862,9.6,12.89,47.84626,-54.09684
2018-10-30 03:00:00+00:00,334.8413,9.6,12.81,47.84626,-54.09684
2018-10-30 03:10:00+00:00,348.1713,9.6,12.73,47.84626,-54.09684
2018-10-30 03:20:00+00:00,344.1163,9.6,12.81,47.84626,-54.09684
2018-10-30 03:30:00+00:00,330.8864,9.6,12.81,47.84626,-54.09684
2018-10-30 03:40:00+00:00,334.163,9.6,12.89,47.84626,-54.09684
2018-10-30 03:50:00+00:00,336.6246,9.6,12.89,47.84626,-54.09684
2018-10-30 04:00:00+00:00,323.098,9.6,12.81,47.84626,-54.09684
2018-10-30 04:10:00+00:00,321.6564,9.6,12.73,47.84626,-54.09684
2018-10-30 04:20:00+00:00,326.6213,9.6,12.81,47.84626,-54.09684
2018-10-30 04:30:00+00:00,323.0813,9.6,12.81,47.84626,-54.09684
2018-10-30 04:40:00+00:00,312.2629,9.6,12.89,47.84626,-54.09684
2018-10-30 04:50:00+00:00,317.688,9.6,12.89,47.84626,-54.09684
2018-10-30 05:00:00+00:00,322.733,9.6,12.81,47.84626,-54.09684
2018-10-30 05:10:00+00:00,319.2246,9.6,12.73,47.84626,-54.09684
2018-10-30 05:20:00+00:00,313.5096,9.6,12.81,47.84626,-54.09684
2018-10-30 05:30:00+00:00,310.5997,9.6,12.81,47.84626,-54.09684
2018-10-30 05:40:00+00:00,300.483,9.6,12.89,47.84626,-54.09684
2018-10-30 05:50:00+00:00,290.4414,9.5,12.89,47.84626,-54.09684
2018-10-30 06:00:00+00:00,280.1797,9.5,12.81,47.84626,-54.09684
2018-10-30 06:10:00+00:00,268.463,9.5,12.73,47.84626,-54.09684
2018-10-30 06:20:00+00:00,260.7081,9.5,12.81,47.84626,-54.09684
2018-10-30 06:30:00+00:00,254.2198,9.5,12.81,47.84626,-54.09684
2018-10-30 06:40:00+00:00,247.6931,9.5,12.89,47.84626,-54.09684
2018-10-30 06:50:00+00:00,240.9265,9.5,12.89,47.84626,-54.09684
2018-10-30 07:00:00+00:00,234.4631,9.5,12.81,47.84626,-54.09684
2018-10-30 07:10:00+00:00,228.5348,9.5,12.73,47.84626,-54.09684
2018-10-30 07:20:00+00:00,223.6931,9.5,12.81,47.84626,-54.09684
2018-10-30 07:30:00+00:00,220.2598,9.5,12.81,47.84626,-54.09684
2018-10-30 07:40:00+00:00,217.9814,9.5,12.89,47.84626,-54.09684
2018-10-30 07:50:00+00:00,214.8981,9.5,12.89,47.84626,-54.09684
2018-10-30 08:00:00+00:00,212.4665,9.5,12.81,47.84626,-54.09684
2018-10-30 08:10:00+00:00,214.9381,9.5,12.73,47.84626,-54.09684
2018-10-30 08:20:00+00:00,217.2081,9.5,12.81,47.84626,-54.09684
2018-10-30 08:30:00+00:00,212.4664,9.5,12.81,47.84626,-54.09684
2018-10-30 08:40:00+00:00,210.1664,9.5,12.89,47.84626,-54.09684
2018-10-30 08:50:00+00:00,216.4698,9.51,12.89,47.84626,-54.09684
2018-10-30 09:00:00+00:00,219.7964,9.52,12.81,47.84626,-54.09684
2018-10-30 09:10:00+00:00,221.8365,9.54,12.73,47.84626,-54.09684
2018-10-30 09:20:00+00:00,224.7981,9.57,12.81,47.84626,-54.09684
2018-10-30 09:30:00+00:00,229.4214,9.58,12.81,47.84626,-54.09684
2018-10-30 09:40:00+00:00,233.8748,9.59,12.89,47.84626,-54.09684
2018-10-30 09:50:00+00:00,234.578,9.6,12.89,47.84626,-54.09684
2018-10-30 10:00:00+00:00,236.7364,9.59,12.81,47.84626,-54.09684
2018-10-30 10:10:00+00:00,240.0897,9.6,12.73,47.84626,-54.09684
2018-10-30 10:20:00+00:00,241.8547,9.6,12.81,47.84626,-54.09684
2018-10-30 10:30:00+00:00,244.3931,9.59,12.81,47.84626,-54.09684
2018-10-30 10:40:00+00:00,248.5481,9.59,12.89,47.84626,-54.09684
2018-10-30 10:50:00+00:00,251.4164,9.6,12.89,47.84626,-54.09684
2018-10-30 11:00:00+00:00,254.8214,9.6,12.81,47.84626,-54.09684
2018-10-30 11:10:00+00:00,260.1481,9.6,12.73,47.84626,-54.09684
2018-10-30 11:20:00+00:00,259.9764,9.6,12.81,47.84626,-54.09684
2018-10-30 11:30:00+00:00,259.6431,9.59,12.81,47.84626,-54.09684
2018-10-30 11:40:00+00:00,262.6947,9.58,12.89,47.84626,-54.09684
2018-10-30 11:50:00+00:00,269.5997,9.58,12.89,47.84626,-54.09684
2018-10-30 12:00:00+00:00,275.3464,9.59,12.81,47.84626,-54.09684
2018-10-30 12:10:00+00:00,279.0464,9.6,12.73,47.84626,-54.09684
2018-10-30 12:20:00+00:00,279.5731,9.59,12.81,47.84626,-54.09684
2018-10-30 12:30:00+00:00,281.3698,9.6,12.89,47.84626,-54.09684
2018-10-30 12:40:00+00:00,283.9414,9.6,12.97,47.84626,-54.09684
2018-10-30 12:50:00+00:00,287.8363,9.6,12.97,47.84626,-54.09684
2018-10-30 13:00:00+00:00,300.8014,9.59,13.05,47.84626,-54.09684
2018-10-30 13:10:00+00:00,313.1114,9.6,12.97,47.84626,-54.09684
2018-10-30 13:20:00+00:00,317.588,9.6,13.13,47.84626,-54.09684
2018-10-30 13:30:00+00:00,322.0212,9.59,13.13,47.84626,-54.09684
2018-10-30 13:40:00+00:00,333.9613,9.59,13.21,47.84626,-54.09684
2018-10-30 13:50:00+00:00,343.3829,9.6,13.21,47.84626,-54.09684
2018-10-30 14:00:00+00:00,349.9396,9.6,13.21,47.84626,-54.09684
2018-10-30 14:10:00+00:00,353.5629,9.6,13.05,47.84626,-54.09684
2018-10-30 14:20:00+00:00,356.5013,9.6,13.13,47.84626,-54.09684
2018-10-30 14:30:00+00:00,365.4046,9.6,13.21,47.84626,-54.09684
2018-10-30 14:40:00+00:00,373.7413,9.6,13.29,47.84626,-54.09684
2018-10-30 14:50:00+00:00,369.5262,9.6,13.29,47.84626,-54.09684
2018-10-30 15:00:00+00:00,372.0579,9.6,13.21,47.84626,-54.09684
2018-10-30 15:10:00+00:00,381.2829,9.6,13.13,47.84626,-54.09684
2018-10-30 15:20:00+00:00,379.8863,9.6,13.21,47.84626,-54.09684
2018-10-30 15:30:00+00:00,378.1229,9.6,13.21,47.84626,-54.09684
2018-10-30 15:40:00+00:00,381.9078,9.6,13.21,47.84626,-54.09684
2018-10-30 15:50:00+00:00,380.703,9.6,13.21,47.84626,-54.09684
2018-10-30 16:00:00+00:00,373.0812,9.6,13.13,47.84626,-54.09684
2018-10-30 16:10:00+00:00,369.1414,9.6,13.05,47.84626,-54.09684
2018-10-30 16:20:00+00:00,366.8596,9.6,13.13,47.84626,-54.09684
2018-10-30 16:30:00+00:00,366.883,9.6,13.05,47.84626,-54.09684
2018-10-30 16:40:00+00:00,367.6179,9.6,13.13,47.84626,-54.09684
2018-10-30 16:50:00+00:00,363.9846,9.6,13.13,47.84626,-54.09684
2018-10-30 17:00:00+00:00,361.5496,9.6,13.13,47.84626,-54.09684
2018-10-30 17:10:00+00:00,359.5963,9.6,13.05,47.84626,-54.09684
2018-10-30 17:20:00+00:00,355.8313,9.6,13.05,47.84626,-54.09684
2018-10-30 17:30:00+00:00,351.1063,9.6,13.05,47.84626,-54.09684
2018-10-30 17:40:00+00:00,348.3996,9.6,13.13,47.84626,-54.09684
2018-10-30 17:50:00+00:00,343.5696,9.6,13.13,47.84626,-54.09684
2018-10-30 18:00:00+00:00,333.4363,9.6,13.05,47.84626,-54.09684
2018-10-30 18:10:00+00:00,327.5013,9.6,12.97,47.84626,-54.09684
2018-10-30 18:20:00+00:00,323.5363,9.6,13.05,47.84626,-54.09684
2018-10-30 18:30:00+00:00,317.2496,9.6,13.05,47.84626,-54.09684
2018-10-30 18:40:00+00:00,307.5397,9.6,13.05,47.84626,-54.09684
2018-10-30 18:50:00+00:00,297.678,9.6,13.05,47.84626,-54.09684
2018-10-30 19:00:00+00:00,291.1564,9.6,12.97,47.84626,-54.09684
2018-10-30 19:10:00+00:00,281.8364,9.6,12.89,47.84626,-54.09684
2018-10-30 19:20:00+00:00,272.1614,9.6,12.97,47.84626,-54.09684
2018-10-30 19:30:00+00:00,267.5947,9.6,12.97,47.84626,-54.09684
2018-10-30 19:40:00+00:00,259.8297,9.6,12.97,47.84626,-54.09684
2018-10-30 19:50:00+00:00,245.7798,9.6,12.97,47.84626,-54.09684
2018-10-30 20:00:00+00:00,238.0764,9.6,12.89,47.84626,-54.09684
2018-10-30 20:10:00+00:00,239.9114,9.6,12.81,47.84626,-54.09684
2018-10-30 20:20:00+00:00,238.7464,9.6,12.89,47.84626,-54.09684
2018-10-30 20:30:00+00:00,227.3764,9.6,12.89,47.84626,-54.09684
2018-10-30 20:40:00+00:00,219.8881,9.6,12.89,47.84626,-54.09684
2018-10-30 20:50:00+00:00,226.3031,9.6,12.89,47.84626,-54.09684
2018-10-30 21:00:00+00:00,231.9181,9.6,12.81,47.84626,-54.09684
2018-10-30 21:10:00+00:00,228.2548,9.6,12.81,47.84626,-54.09684
2018-10-30 21:20:00+00:00,225.1965,9.6,12.89,47.84626,-54.09684
2018-10-30 21:30:00+00:00,231.8781,9.6,12.89,47.84626,-54.09684
2018-10-30 21:40:00+00:00,236.0014,9.6,12.89,47.84626,-54.09684
2018-10-30 21:50:00+00:00,235.0364,9.6,12.89,47.84626,-54.09684
2018-10-30 22:00:00+00:00,234.7997,9.6,12.81,47.84626,-54.09684
2018-10-30 22:10:00+00:00,236.0998,9.6,12.81,47.84626,-54.09684
2018-10-30 22:20:00+00:00,234.8014,9.6,12.81,47.84626,-54.09684
2018-10-30 22:30:00+00:00,235.3931,9.6,12.89,47.84626,-54.09684
2018-10-30 22:40:00+00:00,238.2681,9.6,12.89,47.84626,-54.09684
2018-10-30 22:50:00+00:00,240.2764,9.6,12.89,47.84626,-54.09684
2018-10-30 23:00:00+00:00,241.1298,9.6,12.81,47.84626,-54.09684
2018-10-30 23:10:00+00:00,241.5881,9.6,12.73,47.84626,-54.09684
2018-10-30 23:20:00+00:00,241.1864,9.6,12.81,47.84626,-54.09684
2018-10-30 23:30:00+00:00,244.9098,9.6,12.81,47.84626,-54.09684
2018-10-30 23:40:00+00:00,247.8414,9.6,12.89,47.84626,-54.09684
2018-10-30 23:50:00+00:00,251.1431,9.6,12.89,47.84626,-54.09684
